Regional Weather Roundup
Issued by NWS Upton, NY

Current Version | Previous Version | Text Only | Print | Product List | Glossary On
Versions: 1 2 3 4 5 6 7 8 9 10 11 12 13 14 15 16 17 18 19 20 21 22 23 24 25 26 27 28 29 30 31 32 33 34 35 36 37 38 39 40 41 42 43 44 45 46 47 48 49 50
000 ASUS41 KOKX 051004 RWROKX REGIONAL WEATHER ROUNDUP NATIONAL WEATHER SERVICE NEW YORK NY 600 AM EDT WED AUG 05 2015 NOTE: "FAIR" INDICATES FEW OR NO CLOUDS BELOW 12,000 FEET WITH NO SIGNIFICANT WEATHER AND/OR OBSTRUCTIONS TO VISIBILITY. NYZ071-072-176-178-NJZ106-104-051100- NEW YORK CITY METRO AREA CITY SKY/WX TMP DP RH WIND PRES REMARKS CENTRAL PARK PTCLDY 73 58 59 CALM 29.92S LAGUARDIA APRT MOCLDY 72 65 78 NE3 29.89R KENNEDY INTL MOCLDY 72 59 63 CALM 29.90R NEWARK/LIBERTY PTCLDY 71 59 65 CALM 29.89S BRNX BOT. GARD N/A 66 59 77 NE2 29.90S TETERBORO PTCLDY 69 58 67 CALM 29.89R $$ NYZ177-179-078>081-051100- LONG ISLAND NEW YORK CITY SKY/WX TMP DP RH WIND PRES REMARKS FARMINGDALE PTCLDY 68 60 75 N3 29.89S ISLIP MOCLDY 68 61 78 N3 29.87S SHIRLEY CLEAR 62 60 93 CALM 29.89S WESTHAMPTON PTCLDY 57 55 93 CALM 29.91R MONTAUK POINT N/A 63 61 93 CALM 29.91R $$ NYZ052-065-067-051100- HUDSON VALLEY CITY SKY/WX TMP DP RH WIND PRES REMARKS WHITE PLAINS CLEAR 65 60 84 CALM 29.90S NEWBURGH CLEAR 61 59 94 CALM 29.92S MONTGOMERY CLEAR 57 56 96 SW3 29.91S POUGHKEEPSIE CLEAR 60 57 89 SE3 29.90S ALBANY PTCLDY 61 57 87 CALM 29.91R $$ NJZ001-105-106-008-010-013-015-019>022-104-051100- NEW JERSEY CITY SKY/WX TMP DP RH WIND PRES REMARKS NEWARK/LIBERTY PTCLDY 71 59 65 CALM 29.89S TETERBORO PTCLDY 69 58 67 CALM 29.89R CALDWELL PTCLDY 63 58 83 CALM 29.91S MORRISTOWN PTCLDY 57 54 88 CALM 29.91S SOMERVILLE MOCLDY 59 56 89 CALM 29.89S SUSSEX CLEAR 56 55 97 CALM 29.93R ANDOVER N/A 59 58 96 CALM 29.93S TRENTON PTCLDY 64 57 78 NW3 29.91R MILLVILLE PTCLDY 68 67 96 CALM 29.91R FOG ATLANTIC CITY PTCLDY 70 68 93 W3 29.91R WRIGHTSTOWN PTCLDY 64 59 85 CALM 29.89R TOMS RIVER N/A 63 59 88 CALM 29.91R BELMAR CLEAR 66 54 63 CALM 29.91R $$ PAZ047>061-062-071-051100- EASTERN PENNSYLVANIA CITY SKY/WX TMP DP RH WIND PRES REMARKS PHILADELPHIA MOCLDY 76 64 66 NW5 29.91S ALLENTOWN MOCLDY 61 58 90 CALM 29.93S SCRANTON CLEAR 60 55 83 E5 29.95R $$ CTZ002-004>006-009-010-012-RIZ004-006-007-MAZ004-011-015-051100- SOUTHERN NEW ENGLAND IN CT CITY SKY/WX TMP DP RH WIND PRES REMARKS BRADLEY INTL PTCLDY 61 58 90 W3 29.89F HARTFORD CLEAR 64 62 93 CALM 29.89F DANBURY CLEAR 59 55 87 SW3 29.92S WTRBRY/OXFORD CLEAR 61 52 72 N3 29.93S BRIDGEPORT CLEAR 67 61 81 CALM 29.89S MERIDEN CLEAR 61 58 90 CALM 29.89F NEW HAVEN PTCLDY 64 61 90 CALM 29.90S CHESTER FAIR 63 61 94 NW3 29.91S GROTON CLEAR 63 61 93 CALM 29.88S WILLIMANTIC FOG 62 61 96 N3 29.90F VSB<1/4 IN RI CITY SKY/WX TMP DP RH WIND PRES REMARKS PROVIDENCE CLEAR 65 61 87 CALM 29.89F BLOCK ISLAND N/A 64 61 88 CALM 29.90R WESTERLY CLEAR 62 60 93 SE3 29.89F IN MA CITY SKY/WX TMP DP RH WIND PRES REMARKS BOSTON MOCLDY 66 61 84 S10 29.88S WORCESTER MOCLDY 60 56 86 W7 29.91F WESTFIELD CLEAR 57 56 96 CALM 29.90S PROVINCETOWN CLEAR 66 59 77 W5 29.88F NANTUCKET PTCLDY 68 65 90 S6 29.88F $$ ANZ330-335-338-340-345-350-353-355-051100- COASTAL MARINE OBSERVATIONS STATION/POSITION TIME SKY/WX TEMP WIND PRES VSBY WAVE AIR SEA DIR/SP/G HT/PER (UTC) (F) (DEG/KT/KT) (MB) (MI) (FT/S) NY HARB ENTRANCE 0850 73 75 310/ 6/ 8 1011.5 4/ 8 4S FIRE IS NOT AVBL 20S FIRE ISLAND 0850 75 75 210/ 4/ 4 1011.4 5/ 7 GREAT SOUTH BAY 0900 73 81 30/ 4/ 6 N/A 23SW MTP 0950 72 72 CALM 1011.6 5/ 8 HUDSON CANYON NOT AVBL KINGS POINT 0900 70 70 CALM / 1 1011.4 EXECUTION ROCKS 0900 69 CALM / 2 N/A CENTRAL LI SOUND NOT AVBL EASTERN LI SOUND 0900 68 68 30/ 4/ 4 N/A ROBBINS REEF 0900 72 290/ 6/ 6 1010.9 $$ >>>>>>>>>>>>>>>>>>>>>>>>>>>> KEY <<<<<<<<<<<<<<<<<<<<<<<<<<< > < > SKY/WX - SKY CONDITION/PRESENT WEATHER < > TMP - TEMPERATURE IN FAHRENHEIT < > DP - DEWPOINT IN FAHRENHEIT < > RH - RELATIVE HUMIDITY IN PERCENT < > WIND - DIRECTION AND SPEED IN MPH < > PRES - MEAN SEA LEVEL PRESSURE IN INCHES OF HG < > WCI - WIND CHILL INDEX < > VSB - VISIBILITY IN MILES < > HX - HEAT INDEX < > TC - TEMPERATURE IN CELSIUS < > VRB - VARIABLE WIND DIRECTION < > < >>>>>>>>>>>>>>>>>>>>>>>>>>>> KEY <<<<<<<<<<<<<<<<<<<<<<<<<<<

USA.gov is the U.S. government's official web portal to all federal, state and local government web resources and services.